BRITE-AUSTRIA

Last updated on Sun Apr 12 2026 00:03:41 GMT+0000 (Coordinated Universal Time)

1 39091U 13009F 26101.48108689 .00000159 00000+0 68604-4 0 9991 2 39091 98.3980 282.5717 0011376 80.9060 279.3413 14.36515367687476
UTC large
Height (km)
Speed (km/s)
/
Latitude / Longitude
Inclination (degrees)
Orbital Period (minutes)
Azimuth
Elevation
Range (km)
Doppler Factor

Next 0 passes for location: London (51.5072 / 0.1276)

Sorry there are no passes over London.
BRITE-AUSTRIA